Погода в Кызыл-Хае

Россия / Республика Тыва     50°02′45″N   89°52′06″E
темп.,
°C
ветер,
м/с
пор.,
м/с
влажн.,
%
обл.,
%
осадки,
мм/ч
давл.,
гПа
погр.,
м
23 мая, пн
пн2301:00+10зюз333228 0.0 101121
04:00+7зсз334134 0.0 101322
07:00+8зсз22481 0.0 1015158
10:00+10ссз224169 0.0 10161173
13:00+13ссв233382 0.0 10142215
16:00+13юз223778 0.0 10141484
19:00+11вюв334999 0.1 10161413
22:00+10в335683 0.2 1018797
24 мая, вт
вт2401:00+9юв2266100 0.3 1019232
04:00+7вюв2272100 0.0 101936
07:00+8вюв3371100 0.0 1019353
10:00+10вюв335939 0.0 1018861
13:00+13вюв444320 0.1 10161391
16:00+15вюв4436100 0.0 10141979
19:00+13юв2247100 0.3 1015796
22:00+10с1161100 0.9 1018452
25 мая, ср
ср2501:00+10вюв2262100 1.0 1018190
04:00+9юв2261100 0.0 101728
07:00+10вюв235499 0.0 1017228
10:00+14юв2438100 0.0 1015850
13:00+16ююз3629100 0.1 10132514
16:00+13ююв344571 1.0 1014537
19:00+17зюз7103397 1.1 10102541
22:00+13ссз264789 0.1 1013709
26 мая, чт
чт2601:00+9сз3470100 0.3 1016122
04:00+9з4466100 0.0 101480
07:00+10з335982 0.1 1014153
10:00+13зсз35415 0.3 10121768
13:00+16зсз463296 0.3 10102776
16:00+12юз345391 0.6 1012951
19:00+13ссз445194 0.8 10101237
22:00+10зсз235790 0.9 1012370
27 мая, пт
пт2701:00+8зсз226759 0.9 101248
04:00+8з226796 0.0 101137
07:00+9з346398 0.0 1010250
10:00+11сз355046 0.1 10081608
13:00+12зсз4646100 1.1 10081747
16:00+13сз694253 2.6 10072027
19:00+12ссз11124514 2.6 10081889
22:00+9зсз33585 0.0 1011493